Home   Weather   Norwalk   Past weeks

Flag for USA Past Weather in Norwalk, California, USA — Yesterday and Last 2 Weeks

Now
51 °F

Clear.


Feels Like: 51 °F
Forecast: 43 / 59 °F
Wind: No wind

Location: Fullerton Municipal Airport

Current Time: Feb 23, 2017 at 1:24:26 am

Latest Report: Feb 23, 2017 at 12:53 am


Visibility: 10 mi

Pressure: 30.04 "Hg

Humidity: 56%

Dew Point: 36 °F

Location of NorwalkLocation

Past Weather in Norwalk — Graph

°F

Norwalk Temperature Yesterday

Maximum temperature yesterday: 66 °F (at 12:53 pm)
Minimum temperature yesterday: 51 °F (at 11:53 pm)
Average temperature yesterday: 59 °F

High & Low Weather Summary for the Past Weeks

 TemperatureHumidityPressure
High82 °F (Feb 15, 1:53 pm)100% (Feb 7, 11:31 pm)30.33 "Hg (Feb 7, 11:31 pm)
Low48 °F (Feb 12, 5:53 am)20% (Feb 15, 12:53 pm)29.45 "Hg (Feb 17, 4:53 pm)
Average60 °F81%30.00 "Hg
* Reported Feb 7 11:31 pm — Feb 22 11:53 pm, Norwalk, Weather by CustomWeather, © 2017

Note: Actual official high and low records may vary slightly from our data, if they occured in-between our weather recording intervals... More about our weather records

Advertising

Norwalk Weather History for the Previous 24 Hours

Scroll right to see more
 ConditionsComfort  
Time TempWeatherWind HumidityBarometerVisibility
11:53 pm
Wed, Feb 22
51 °FClear.No wind80%30.05 "Hg10 mi
10:53 pm53 °FClear.No wind83%30.04 "Hg10 mi
9:53 pm55 °FClear.5 mph80%30.04 "Hg10 mi
8:53 pm57 °FClear.3 mph74%30.03 "Hg10 mi
7:53 pm58 °FClear.No wind72%30.02 "Hg10 mi
6:53 pm59 °FClear.No wind69%30.01 "Hg10 mi
5:53 pm61 °FPassing clouds.9 mph58%30.01 "Hg10 mi
4:53 pm62 °FSunny.9 mph50%30.02 "Hg10 mi
3:53 pm63 °FSunny.6 mph48%30.01 "Hg10 mi
2:53 pm63 °FPassing clouds.7 mph43%30.03 "Hg10 mi
1:53 pm65 °FPassing clouds.9 mph42%30.03 "Hg10 mi
12:53 pm66 °FPassing clouds.6 mph47%30.06 "Hg10 mi
11:53 am65 °FPassing clouds.8 mph44%30.09 "Hg10 mi
10:53 am65 °FBroken clouds.5 mph54%30.11 "Hg10 mi
10:00 am61 °FPassing clouds.5 mph67%30.13 "Hg10 mi
9:08 am58 °FPartly sunny.No wind78%30.14 "Hg10 mi
8:22 am59 °FPartly sunny.No wind81%30.14 "Hg10 mi
7:53 am57 °FSunny.No wind87%30.14 "Hg9 mi
7:28 am57 °FScattered clouds.No wind87%30.13 "Hg9 mi
6:53 am56 °FLow clouds.No wind90%30.12 "Hg9 mi
5:53 am55 °FPassing clouds.No wind96%30.12 "Hg10 mi
4:53 am57 °FLow clouds.No wind93%30.13 "Hg10 mi
3:53 am57 °FLow clouds.No wind93%30.14 "Hg9 mi
2:53 am57 °FLow clouds.3 mph93%30.14 "Hg8 mi
1:53 am58 °FLow clouds.No wind93%30.16 "Hg7 mi
1:17 am58 °FLow clouds.No wind93%30.18 "Hg8 mi
Weather by CustomWeather, © 2017

See weather overviewHow to use our weather pages